Location: Arrodets-la-Barthe
(43.0306°N, 0.2829°E)
Time: 02:46:56
(UTC+00:00)

Cosmos 2344 - Pass Details

Date: 31 May 2022
Orbit: 1228 x 3015 km, 63.3° (Epoch: 03 July)

Event Time Altitude Azimuth Distance (km) Brightness Sun altitude
Rises 00:19:10 0° 304° (NW) 4,191 6.7 -24.9°
Reaches altitude 10° 00:22:53 10° 323° (NW) 3,314 6.3 -24.8°
Maximum altitude 00:28:16 19° 7° (N) 2,888 6.3 -24.7°
Drops below altitude 10° 00:34:29 10° 50° (NE) 3,887 6.7 -24.5°
Sets 00:39:24 0° 68° (ENE) 5,196 7.2 -24.3°
